Virginia Beach, VA

1:47 PM EST on January 21, 2017 (GMT -0500)
Oceana NAS

Weather History for KNTU - February, 2014

Change the Weather History Date:

Thursday, February 6, 2014

  Actual Average Record
Temperature  
Mean Temperature 36 °F -  
Max Temperature 41 °F 48 °F 78 °F (2008)
Min Temperature 32 °F 32 °F 16 °F (2007)
Degree Days  
Heating Degree Days 28    
Moisture  
Dew Point 23 °F    
Average Humidity 64    
Maximum Humidity 89    
Minimum Humidity 54    
Precipitation  
Precipitation 0.00 in - - ()
Sea Level Pressure  
Sea Level Pressure 30.25 in    
Wind  
Wind Speed 12 mph (North)    
Max Wind Speed 20 mph    
Max Gust Speed 29 mph    
Visibility 10 miles    
Events      
Averages and records for this station are not official NWS values.
T = Trace of Precipitation, MM = Missing Value Source: NWS Daily Summary

Daily Weather History Graph

Daily Weather History Graph

Search for Another Location

Airport or City:

Trip Planner

Search our weather history database for the weather conditions in past years. The results will help you decide how hot, cold, wet, or windy it might be!

Date:

Astronomy

Feb. 06, 2014 Rise Set
Actual Time 7:01 AM EST 5:34 PM EST
Civil Twilight 6:34 AM EST 6:01 PM EST
Nautical Twilight 6:04 AM EST 6:32 PM EST
Astronomical Twilight 5:33 AM EST 7:03 PM EST
Moon 11:05 AM EST (2/6) 12:15 AM EST (2/6)
Length of Visible Light 11h 27m
Length of Day
10h 33m
Waxing Crescent, 49% of the Moon is Illuminated
Feb 6
Waxing Crescent
Feb 6
First Quarter
Feb 14
Full
Feb 22
Last Quarter
Mar 1
New

Hourly Weather History & Observations

Time (EST) Temp. Windchill Dew Point Humidity Pressure Visibility Wind Dir Wind Speed Gust Speed Precip Events Conditions
12:12 AM 41.0 °F 34.3 °F 37.9 °F 89% 30.03 in 10.0 mi North 11.5 mph - N/A   Mostly Cloudy
12:56 AM 39.0 °F 31.0 °F 33.1 °F 79% 30.06 in 10.0 mi NNW 13.8 mph - N/A   Mostly Cloudy
1:56 AM 37.0 °F 28.9 °F 28.0 °F 70% 30.10 in 10.0 mi NNW 12.7 mph - N/A   Scattered Clouds
2:56 AM 35.1 °F 25.2 °F 24.1 °F 64% 30.13 in 10.0 mi North 16.1 mph 25.3 mph N/A   Scattered Clouds
3:56 AM 34.0 °F 22.7 °F 23.0 °F 64% 30.16 in 10.0 mi North 19.6 mph 28.8 mph N/A   Scattered Clouds
4:56 AM 33.1 °F 22.6 °F 21.9 °F 64% 30.20 in 10.0 mi North 16.1 mph 24.2 mph N/A   Scattered Clouds
5:56 AM 33.1 °F 21.5 °F 23.0 °F 66% 30.21 in 10.0 mi North 19.6 mph 26.5 mph N/A   Mostly Cloudy
6:56 AM 33.1 °F 21.9 °F 21.9 °F 64% 30.24 in 10.0 mi North 18.4 mph 27.6 mph N/A   Mostly Cloudy
7:56 AM 33.1 °F 23.4 °F 21.9 °F 64% 30.26 in 10.0 mi North 13.8 mph 24.2 mph N/A   Mostly Cloudy
8:56 AM 33.1 °F 23.0 °F 21.9 °F 64% 30.29 in 10.0 mi North 15.0 mph - N/A   Mostly Cloudy
9:56 AM 33.1 °F 23.0 °F 21.0 °F 61% 30.31 in 10.0 mi NNE 15.0 mph - N/A   Mostly Cloudy
10:56 AM 34.0 °F 24.6 °F 21.0 °F 59% 30.32 in 10.0 mi North 13.8 mph - N/A   Mostly Cloudy
11:56 AM 34.0 °F 25.5 °F 21.0 °F 59% 30.32 in 10.0 mi North 11.5 mph - N/A   Mostly Cloudy
12:56 PM 34.0 °F 23.8 °F 21.0 °F 59% 30.30 in 10.0 mi North 16.1 mph - N/A   Mostly Cloudy
1:56 PM 34.0 °F 25.5 °F 19.0 °F 54% 30.30 in 10.0 mi North 11.5 mph - N/A   Mostly Cloudy
2:56 PM 34.0 °F 25.5 °F 21.0 °F 59% 30.30 in 10.0 mi North 11.5 mph - N/A   Overcast
3:56 PM 34.0 °F 26.0 °F 21.0 °F 59% 30.30 in 10.0 mi NNE 10.4 mph - N/A   Overcast
4:56 PM 33.1 °F 26.1 °F 19.9 °F 59% 30.30 in 10.0 mi North 8.1 mph - N/A   Overcast
5:56 PM 32.0 °F 27.5 °F 21.0 °F 64% 30.30 in 10.0 mi NNE 4.6 mph - N/A   Overcast
6:56 PM 33.1 °F 27.7 °F 21.0 °F 61% 30.33 in 10.0 mi North 5.8 mph - N/A   Overcast
7:56 PM 32.0 °F 27.5 °F 21.9 °F 66% 30.30 in 10.0 mi ENE 4.6 mph - N/A   Overcast
8:56 PM 33.1 °F 28.7 °F 21.9 °F 64% 30.33 in 10.0 mi NNE 4.6 mph - N/A   Overcast
9:56 PM 33.1 °F 30.0 °F 21.9 °F 64% 30.36 in 10.0 mi NW 3.5 mph - N/A   Overcast
10:56 PM 33.1 °F - 23.0 °F 66% 30.32 in 10.0 mi Calm Calm - N/A   Overcast
11:56 PM 34.0 °F 29.8 °F 23.0 °F 64% 30.30 in 10.0 mi North 4.6 mph - N/A   Overcast